Torna al catalogo

SL-8 R/B

AttivoPO
NORAD 16799·ROCKET BODY·🇷🇺 Russia

Lanciato Jun 18, 1986 da Plesetsk Cosmodrome

Loading…

Prossimi Passaggi (prossime 24 ore)

TLE

AggiornatoSource: Space-Track

Epoca: Sep 13, 2026, 23:17 UTC

1 16799U 86047B   26256.97036904 -.00000047  00000-0 -61958-4 0  9992
2 16799  82.9147  80.1582 0066309 181.8864 178.2054 13.77613906955750

Traccia SL-8 R/B in tempo reale con AllMySat

Download on the App Store